﻿_id,日時,平均風速(m/s),平均風向,最大瞬間風速(m/s),最大風速時風向,気温(℃),湿度(%),10分間移動積算雨量(mm),1時間移動積算雨量(mm),日雨量(mm),累計雨量(mm),日射(日積算)(MJ/m2),日照(日積算)(min),現地気圧(hPa),海面気圧(hPa)
1,2020-01-13T00:00:00,1.3,西北西,2.9,西,4.6,94.6,0,0,0,0,3.72,61,998,1012.3
2,2020-01-13T00:01:00,1.2,西北西,2.6,西,4.7,94.7,0,0,0,0,0,0,998,1012.3
3,2020-01-13T00:02:00,1.2,西北西,2.3,西北西,4.5,94.6,0,0,0,0,0,0,998,1012.3
4,2020-01-13T00:03:00,1.3,西北西,2.6,西北西,4.5,94,0,0,0,0,0,0,998,1012.3
5,2020-01-13T00:04:00,1.4,西北西,2.6,西北西,4.4,93.9,0,0,0,0,0,0,998,1012.3
6,2020-01-13T00:05:00,1.5,西北西,2.6,西北西,4.3,93.5,0,0,0,0,0,0,998,1012.3
7,2020-01-13T00:06:00,1.6,西北西,2.6,西北西,4.2,93.1,0,0,0,0,0,0,998,1012.3
8,2020-01-13T00:07:00,1.6,西北西,2.6,西北西,4.2,92.7,0,0,0,0,0,0,997.9,1012.2
9,2020-01-13T00:08:00,1.6,西北西,2.6,西北西,4.3,93.3,0,0,0,0,0,0,997.9,1012.2
10,2020-01-13T00:09:00,1.6,西北西,2.6,西北西,4.4,93.5,0,0,0,0,0,0,997.9,1012.2
11,2020-01-13T00:10:00,1.6,西北西,2.6,西北西,4.4,93.6,0,0,0,0,0,0,997.9,1012.2
12,2020-01-13T00:11:00,1.5,西北西,2.6,西北西,4.4,93.6,0,0,0,0,0,0,997.9,1012.2
13,2020-01-13T00:12:00,1.5,西北西,2.6,西北西,4.3,93.4,0,0,0,0,0,0,997.9,1012.2
14,2020-01-13T00:13:00,1.4,西北西,2.2,西北西,4.5,93.5,0,0,0,0,0,0,997.9,1012.2
15,2020-01-13T00:14:00,1.3,西北西,1.9,西,4.5,93.9,0,0,0,0,0,0,997.9,1012.2
16,2020-01-13T00:15:00,1.3,西北西,1.9,西,4.4,93.8,0,0,0,0,0,0,997.9,1012.2
17,2020-01-13T00:16:00,1.3,西北西,1.8,西北西,4.4,93.4,0,0,0,0,0,0,997.9,1012.2
18,2020-01-13T00:17:00,1.3,西北西,1.8,西北西,4.3,93.4,0,0,0,0,0,0,997.9,1012.2
19,2020-01-13T00:18:00,1.3,西,1.8,西北西,4.2,93,0,0,0,0,0,0,998,1012.3
20,2020-01-13T00:19:00,1.2,西,1.8,西北西,4.3,93.4,0,0,0,0,0,0,998,1012.3
21,2020-01-13T00:20:00,1.2,西,1.8,西北西,4.3,94.1,0,0,0,0,0,0,998,1012.3
22,2020-01-13T00:21:00,1.3,西,1.8,西北西,4.4,94.4,0,0,0,0,0,0,998,1012.3
23,2020-01-13T00:22:00,1.3,西,1.8,西北西,4.3,94.4,0,0,0,0,0,0,998,1012.3
24,2020-01-13T00:23:00,1.2,西,1.8,西北西,4.2,94.1,0,0,0,0,0,0,998,1012.3
25,2020-01-13T00:24:00,1.2,西,1.8,西北西,4.2,94.2,0,0,0,0,0,0,998,1012.3
26,2020-01-13T00:25:00,1.2,西,1.9,西南西,4.3,94.5,0,0,0,0,0,0,998.1,1012.4
27,2020-01-13T00:26:00,1.1,西,1.9,西南西,4.2,94.7,0,0,0,0,0,0,998,1012.3
28,2020-01-13T00:27:00,1.1,西,1.9,西南西,4.2,94.6,0,0,0,0,0,0,998.1,1012.4
29,2020-01-13T00:28:00,1.1,西,1.9,西南西,4.1,94.8,0,0,0,0,0,0,998.1,1012.4
30,2020-01-13T00:29:00,1.1,西,1.9,西南西,4.1,94.7,0,0,0,0,0,0,998.1,1012.4
31,2020-01-13T00:30:00,1.1,西,1.9,西南西,4.1,94.8,0,0,0,0,0,0,998.1,1012.4
32,2020-01-13T00:31:00,1.1,西,1.9,西南西,4.1,95.1,0,0,0,0,0,0,998.1,1012.4
33,2020-01-13T00:32:00,1.1,西,2.9,西,4,95,0,0,0,0,0,0,998.2,1012.5
34,2020-01-13T00:33:00,1.3,西,2.9,西,3.8,94.7,0,0,0,0,0,0,998.2,1012.6
35,2020-01-13T00:34:00,1.4,西,2.9,西,3.6,94.1,0,0,0,0,0,0,998.1,1012.5
36,2020-01-13T00:35:00,1.5,西,3,西,3.6,94,0,0,0,0,0,0,998.1,1012.5
37,2020-01-13T00:36:00,1.7,西,3,西,3.6,94.4,0,0,0,0,0,0,998.1,1012.5
38,2020-01-13T00:37:00,1.8,西,3,西,3.7,94.8,0,0,0,0,0,0,998.2,1012.6
39,2020-01-13T00:38:00,1.8,西,3,西,3.7,95.3,0,0,0,0,0,0,998.2,1012.6
40,2020-01-13T00:39:00,1.9,西,3,西,3.8,95.4,0,0,0,0,0,0,998.2,1012.6
41,2020-01-13T00:40:00,2,西,3,西,3.8,95.5,0,0,0,0,0,0,998.2,1012.6
42,2020-01-13T00:41:00,1.9,西,3,西,3.6,95.2,0,0,0,0,0,0,998.2,1012.6
43,2020-01-13T00:42:00,1.9,西,3,西,3.7,95.2,0,0,0,0,0,0,998.1,1012.5
44,2020-01-13T00:43:00,1.7,西,3,西,3.7,95.1,0,0,0,0,0,0,998.1,1012.5
45,2020-01-13T00:44:00,1.5,西北西,3,西,3.6,95.2,0,0,0,0,0,0,998.1,1012.5
46,2020-01-13T00:45:00,1.3,西北西,2.9,西北西,3.7,95.1,0,0,0,0,0,0,998.2,1012.6
47,2020-01-13T00:46:00,1.2,西北西,2.9,西北西,3.6,95,0,0,0,0,0,0,998.2,1012.6
48,2020-01-13T00:47:00,1.2,西北西,2.9,西北西,3.6,94.9,0,0,0,0,0,0,998.2,1012.6
49,2020-01-13T00:48:00,1.3,西北西,3,西,3.5,94.6,0,0,0,0,0,0,998.3,1012.7
50,2020-01-13T00:49:00,1.4,西,3.3,西北西,3.4,94.2,0,0,0,0,0,0,998.2,1012.6
51,2020-01-13T00:50:00,1.4,西北西,3.3,西北西,3.5,94.1,0,0,0,0,0,0,998.3,1012.7
52,2020-01-13T00:51:00,1.4,西北西,3.3,西北西,3.6,94.7,0,0,0,0,0,0,998.3,1012.7
53,2020-01-13T00:52:00,1.3,西北西,3.3,西北西,3.7,94.8,0,0,0,0,0,0,998.4,1012.8
54,2020-01-13T00:53:00,1.3,西北西,3.3,西北西,3.8,95.2,0,0,0,0,0,0,998.4,1012.8
55,2020-01-13T00:54:00,1.3,西北西,3.3,西北西,3.9,95.3,0,0,0,0,0,0,998.4,1012.8
56,2020-01-13T00:55:00,1.4,北西,3.3,西北西,3.9,95.4,0,0,0,0,0,0,998.5,1012.9
57,2020-01-13T00:56:00,1.3,北西,3.3,西北西,3.9,95.3,0,0,0,0,0,0,998.5,1012.9
58,2020-01-13T00:57:00,1.2,北北西,3.3,西北西,3.9,95.2,0,0,0,0,0,0,998.5,1012.9
59,2020-01-13T00:58:00,1,北北西,3.3,西北西,3.9,95.1,0,0,0,0,0,0,998.4,1012.8
60,2020-01-13T00:59:00,0.8,北,3.1,西,3.9,95,0,0,0,0,0,0,998.3,1012.7
61,2020-01-13T01:00:00,0.7,北,1.6,北北東,4,95.2,0,0,0,0,0,0,998.3,1012.6
62,2020-01-13T01:01:00,0.7,北北東,1.6,北北東,4,95.3,0,0,0,0,0,0,998.4,1012.7
63,2020-01-13T01:02:00,0.7,北東,1.6,北北東,3.9,95.2,0,0,0,0,0,0,998.4,1012.8
64,2020-01-13T01:03:00,0.6,北東,1.6,北北東,3.9,95.1,0,0,0,0,0,0,998.4,1012.8
65,2020-01-13T01:04:00,0.5,北東,1.6,北北東,4,95.2,0,0,0,0,0,0,998.4,1012.7
66,2020-01-13T01:05:00,0.4,東北東,1.4,東北東,4,95.3,0,0,0,0,0,0,998.4,1012.7
67,2020-01-13T01:06:00,0.4,東北東,1.4,東北東,4,95.3,0,0,0,0,0,0,998.5,1012.8
68,2020-01-13T01:07:00,0.4,東北東,1.4,東北東,4,95.4,0,0,0,0,0,0,998.5,1012.8
69,2020-01-13T01:08:00,0.4,東北東,1.4,東北東,3.9,95.4,0,0,0,0,0,0,998.5,1012.9
70,2020-01-13T01:09:00,0.4,東,1.4,東北東,3.9,95.2,0,0,0,0,0,0,998.5,1012.9
71,2020-01-13T01:10:00,0.3,東南東,1.3,東北東,4,95.3,0,0,0,0,0,0,998.5,1012.8
72,2020-01-13T01:11:00,0.2,静穏,1.2,南西,4.1,95.7,0,0,0,0,0,0,998.5,1012.8
73,2020-01-13T01:12:00,0.2,静穏,1.2,南西,4,95.7,0,0,0,0,0,0,998.5,1012.8
74,2020-01-13T01:13:00,0.2,静穏,1.2,南西,4,95.6,0,0,0,0,0,0,998.5,1012.8
75,2020-01-13T01:14:00,0.2,静穏,1.2,南西,4,95.6,0,0,0,0,0,0,998.5,1012.8
76,2020-01-13T01:15:00,0.2,静穏,1.2,南西,3.9,95.5,0,0,0,0,0,0,998.5,1012.9
77,2020-01-13T01:16:00,0.3,南西,1.2,南西,3.9,95.5,0,0,0,0,0,0,998.5,1012.9
78,2020-01-13T01:17:00,0.3,南西,1.2,南西,3.9,95.4,0,0,0,0,0,0,998.5,1012.9
79,2020-01-13T01:18:00,0.3,南西,1.2,南西,3.9,95.7,0,0,0,0,0,0,998.5,1012.9
80,2020-01-13T01:19:00,0.2,静穏,0.9,南南西,3.8,95.6,0,0,0,0,0,0,998.5,1012.9
81,2020-01-13T01:20:00,0.2,静穏,0.9,南南西,3.7,95.4,0,0,0,0,0,0,998.6,1013
82,2020-01-13T01:21:00,0.3,西南西,1.2,西,4,95.6,0,0,0,0,0,0,998.6,1012.9
83,2020-01-13T01:22:00,0.3,西南西,1.3,西,3.9,95.8,0,0,0,0,0,0,998.6,1013
84,2020-01-13T01:23:00,0.4,西,1.3,西,3.9,95.8,0,0,0,0,0,0,998.5,1012.9
85,2020-01-13T01:24:00,0.4,西,1.3,西,3.9,95.7,0,0,0,0,0,0,998.6,1013
86,2020-01-13T01:25:00,0.4,西,1.3,西,3.9,95.7,0,0,0,0,0,0,998.5,1012.9
87,2020-01-13T01:26:00,0.4,西,1.3,西,4,95.8,0,0,0,0,0,0,998.6,1012.9
88,2020-01-13T01:27:00,0.4,西,1.3,西,4.1,95.9,0,0,0,0,0,0,998.6,1012.9
89,2020-01-13T01:28:00,0.4,西北西,1.3,西,4,96,0,0,0,0,0,0,998.6,1012.9
90,2020-01-13T01:29:00,0.5,西北西,1.3,西,4.1,95.8,0,0,0,0,0,0,998.6,1012.9
91,2020-01-13T01:30:00,0.6,西北西,1.8,西北西,4.1,96,0,0,0,0,0,0,998.6,1012.9
92,2020-01-13T01:31:00,0.6,西北西,1.8,西北西,4,95.8,0,0,0,0,0,0,998.6,1012.9
93,2020-01-13T01:32:00,0.7,西北西,1.8,西北西,3.8,95.6,0,0,0,0,0,0,998.6,1013
94,2020-01-13T01:33:00,0.7,西北西,1.8,西北西,3.6,95.4,0,0,0,0,0,0,998.6,1013
95,2020-01-13T01:34:00,0.6,西,1.8,西北西,3.7,95.3,0,0,0,0,0,0,998.6,1013
96,2020-01-13T01:35:00,0.6,西,1.8,西北西,3.9,95.7,0,0,0,0,0,0,998.7,1013.1
97,2020-01-13T01:36:00,0.6,西,1.8,西北西,4,95.9,0,0,0,0,0,0,998.7,1013.1
98,2020-01-13T01:37:00,0.7,西,1.8,西北西,3.9,95.9,0,0,0,0,0,0,998.7,1013.1
99,2020-01-13T01:38:00,0.7,西,1.8,西北西,4,95.9,0,0,0,0,0,0,998.6,1012.9
100,2020-01-13T01:39:00,0.8,西南西,1.9,西南西,3.9,96,0,0,0,0,0,0,998.6,1013
101,2020-01-13T01:40:00,0.9,西南西,2.1,西南西,3.8,95.8,0,0,0,0,0,0,998.7,1013.1
102,2020-01-13T01:41:00,0.9,西南西,2.1,西南西,3.7,95.6,0,0,0,0,0,0,998.6,1013
103,2020-01-13T01:42:00,0.8,西南西,2.1,西南西,3.6,95.4,0,0,0,0,0,0,998.6,1013
104,2020-01-13T01:43:00,0.8,西南西,2.1,西南西,3.6,95.5,0,0,0,0,0,0,998.6,1013
105,2020-01-13T01:44:00,0.9,西南西,2.1,西南西,3.7,95.5,0,0,0,0,0,0,998.6,1013
106,2020-01-13T01:45:00,1,西南西,2.1,西南西,3.7,95.7,0,0,0,0,0,0,998.6,1013
107,2020-01-13T01:46:00,1.1,西南西,2.1,西南西,3.7,95.7,0,0,0,0,0,0,998.6,1013
108,2020-01-13T01:47:00,1.2,西南西,2.8,西,3.5,95.7,0,0,0,0,0,0,998.6,1013
109,2020-01-13T01:48:00,1.3,西南西,2.8,西,3.3,95.3,0,0,0,0,0,0,998.6,1013
110,2020-01-13T01:49:00,1.3,西南西,3,西,3.1,94.9,0,0,0,0,0,0,998.6,1013
111,2020-01-13T01:50:00,1.3,西南西,3,西,3.1,94.8,0,0,0,0,0,0,998.7,1013.1
112,2020-01-13T01:51:00,1.4,西南西,3,西,3.2,95.2,0,0,0,0,0,0,998.7,1013.1
113,2020-01-13T01:52:00,1.5,西南西,3,西,3.2,95.4,0,0,0,0,0,0,998.7,1013.1
114,2020-01-13T01:53:00,1.7,西南西,3.4,西,3.2,95.5,0,0,0,0,0,0,998.8,1013.2
115,2020-01-13T01:54:00,1.8,西,3.4,西,3.2,95.6,0,0,0,0,0,0,998.7,1013.1
116,2020-01-13T01:55:00,1.9,西,3.4,西,3.1,95.5,0,0,0,0,0,0,998.7,1013.1
117,2020-01-13T01:56:00,2,西,3.4,西,3,95.3,0,0,0,0,0,0,998.8,1013.2
118,2020-01-13T01:57:00,1.9,西,3.4,西,3.3,95.6,0,0,0,0,0,0,998.8,1013.2
119,2020-01-13T01:58:00,1.8,西,3.4,西,3.2,95.7,0,0,0,0,0,0,998.7,1013.1
120,2020-01-13T01:59:00,1.8,西,3.4,西,3.3,95.7,0,0,0,0,0,0,998.8,1013.2
121,2020-01-13T02:00:00,1.8,西,3.4,西,3.4,95.9,0,0,0,0,0,0,998.8,1013.2
122,2020-01-13T02:01:00,1.9,西,3.4,西,3.3,95.8,0,0,0,0,0,0,998.9,1013.3
123,2020-01-13T02:02:00,1.8,西,3.4,西,3.2,95.7,0,0,0,0,0,0,998.8,1013.2
124,2020-01-13T02:03:00,1.8,西,3,西,3.1,95.6,0,0,0,0,0,0,998.9,1013.3
125,2020-01-13T02:04:00,1.9,西,3.4,西,3.1,95.5,0,0,0,0,0,0,998.9,1013.3
126,2020-01-13T02:05:00,1.9,西,3.4,西,3,95.4,0,0,0,0,0,0,998.9,1013.3
127,2020-01-13T02:06:00,1.9,西,3.4,西,2.9,95.4,0,0,0,0,0,0,998.8,1013.2
128,2020-01-13T02:07:00,2,西,3.4,西,2.9,95.3,0,0,0,0,0,0,998.8,1013.2
129,2020-01-13T02:08:00,2,西,3.4,西,2.8,95.4,0,0,0,0,0,0,998.8,1013.2
130,2020-01-13T02:09:00,1.9,西,3.4,西,2.8,95.4,0,0,0,0,0,0,998.8,1013.2
131,2020-01-13T02:10:00,1.8,西,3.4,西,2.9,95.6,0,0,0,0,0,0,998.8,1013.2
132,2020-01-13T02:11:00,1.8,西,3.4,西,2.9,95.6,0,0,0,0,0,0,998.8,1013.2
133,2020-01-13T02:12:00,1.8,西,3.4,西,2.9,95.6,0,0,0,0,0,0,998.8,1013.2
134,2020-01-13T02:13:00,1.9,西,3.4,西,2.7,95.6,0,0,0,0,0,0,998.9,1013.3
135,2020-01-13T02:14:00,1.8,西,3.1,西,2.7,95.4,0,0,0,0,0,0,998.9,1013.3
136,2020-01-13T02:15:00,1.7,西,3.1,西,2.6,95.3,0,0,0,0,0,0,998.8,1013.2
137,2020-01-13T02:16:00,1.6,西,3.1,西,2.8,95.4,0,0,0,0,0,0,998.9,1013.3
138,2020-01-13T02:17:00,1.6,西,3.1,西,2.8,95.8,0,0,0,0,0,0,998.9,1013.3
139,2020-01-13T02:18:00,1.7,西,3.1,西,2.7,95.7,0,0,0,0,0,0,999,1013.4
140,2020-01-13T02:19:00,1.7,西,3.1,西,2.7,95.6,0,0,0,0,0,0,999,1013.4
141,2020-01-13T02:20:00,1.8,西,3.1,西,2.7,95.6,0,0,0,0,0,0,999,1013.4
142,2020-01-13T02:21:00,1.8,西,3.1,西,2.7,95.7,0,0,0,0,0,0,999,1013.4
143,2020-01-13T02:22:00,1.6,西,3.1,西,2.6,95.6,0,0,0,0,0,0,999,1013.4
144,2020-01-13T02:23:00,1.5,西,3.1,西,2.5,95.5,0,0,0,0,0,0,999.1,1013.5
145,2020-01-13T02:24:00,1.2,西,2.9,西,2.8,95.7,0,0,0,0,0,0,999.1,1013.5
146,2020-01-13T02:25:00,1.2,西,2.9,西,2.8,95.9,0,0,0,0,0,0,999,1013.4
147,2020-01-13T02:26:00,1.3,西,2.9,西,2.8,95.9,0,0,0,0,0,0,999,1013.4
148,2020-01-13T02:27:00,1.2,西,2.9,西,2.7,95.9,0,0,0,0,0,0,999.1,1013.5
149,2020-01-13T02:28:00,1,西,2.9,西,2.8,95.7,0,0,0,0,0,0,999,1013.4
150,2020-01-13T02:29:00,0.8,西,2.5,西,2.6,95.8,0,0,0,0,0,0,999.1,1013.5
151,2020-01-13T02:30:00,0.8,西,2,西北西,2.5,95.5,0,0,0,0,0,0,999.1,1013.5
152,2020-01-13T02:31:00,0.7,西,1.9,西北西,2.7,95.6,0,0,0,0,0,0,999.1,1013.5
153,2020-01-13T02:32:00,0.8,西,1.9,西北西,2.6,95.8,0,0,0,0,0,0,999.1,1013.5
154,2020-01-13T02:33:00,1,西,2.3,南西,2.4,95.5,0,0,0,0,0,0,999.1,1013.5
155,2020-01-13T02:34:00,1,西,2.3,南西,2.3,95.4,0,0,0,0,0,0,999,1013.4
156,2020-01-13T02:35:00,1,西,2.3,南西,2.4,95.4,0,0,0,0,0,0,998.9,1013.3
157,2020-01-13T02:36:00,1,西,2.3,南西,2.4,95.6,0,0,0,0,0,0,998.9,1013.3
158,2020-01-13T02:37:00,1,西,2.3,南西,2.4,95.7,0,0,0,0,0,0,998.9,1013.3
159,2020-01-13T02:38:00,1,西南西,2.3,南西,2.6,95.8,0,0,0,0,0,0,999,1013.4
160,2020-01-13T02:39:00,1.1,西南西,2.3,南西,2.7,96,0,0,0,0,0,0,999,1013.4
161,2020-01-13T02:40:00,1.1,西南西,2.3,南西,2.6,96,0,0,0,0,0,0,999,1013.4
162,2020-01-13T02:41:00,1,西南西,2.3,南西,2.7,95.9,0,0,0,0,0,0,999.1,1013.5
163,2020-01-13T02:42:00,1,西南西,2.3,南西,2.6,95.9,0,0,0,0,0,0,999.1,1013.5
164,2020-01-13T02:43:00,1,西南西,2.3,西北西,2.6,95.9,0,0,0,0,0,0,999.1,1013.5
165,2020-01-13T02:44:00,1.1,西南西,2.3,西北西,2.6,95.8,0,0,0,0,0,0,999.1,1013.5
166,2020-01-13T02:45:00,1.1,西,2.3,西北西,2.5,95.7,0,0,0,0,0,0,999.1,1013.5
167,2020-01-13T02:46:00,1.1,西,2.3,西北西,2.5,95.7,0,0,0,0,0,0,999,1013.4
168,2020-01-13T02:47:00,1.2,西,2.3,西北西,2.4,95.7,0,0,0,0,0,0,999.1,1013.5
169,2020-01-13T02:48:00,1.3,西,2.3,西北西,2.5,95.7,0,0,0,0,0,0,999.1,1013.5
170,2020-01-13T02:49:00,1.3,西北西,2.3,西北西,2.5,95.8,0,0,0,0,0,0,999.1,1013.5
171,2020-01-13T02:50:00,1.3,西北西,2.3,西北西,2.4,95.7,0,0,0,0,0,0,999.1,1013.5
172,2020-01-13T02:51:00,1.5,西北西,2.3,西北西,2.2,95.5,0,0,0,0,0,0,999.1,1013.6
173,2020-01-13T02:52:00,1.5,西北西,2.3,西北西,2.3,95.4,0,0,0,0,0,0,999.1,1013.5
174,2020-01-13T02:53:00,1.4,西北西,2.2,西,2.3,95.6,0,0,0,0,0,0,999.1,1013.5
175,2020-01-13T02:54:00,1.3,西北西,2.2,西,2.3,95.6,0,0,0,0,0,0,999,1013.4
176,2020-01-13T02:55:00,1.3,西北西,2.2,西,2.4,95.7,0,0,0,0,0,0,999,1013.4
177,2020-01-13T02:56:00,1.3,西,2.2,西,2.2,95.7,0,0,0,0,0,0,999,1013.4
178,2020-01-13T02:57:00,1.3,西,2.2,西,2,95.3,0,0,0,0,0,0,999,1013.5
179,2020-01-13T02:58:00,1.3,西,2.2,西,1.9,94.9,0,0,0,0,0,0,999,1013.5
180,2020-01-13T02:59:00,1.3,西,2.2,西,2,95.1,0,0,0,0,0,0,999.1,1013.6
181,2020-01-13T03:00:00,1.4,西,3,西,2.2,95.5,0,0,0,0,0,0,999.1,1013.6
182,2020-01-13T03:01:00,1.4,西,3,西,2,95.4,0,0,0,0,0,0,999.1,1013.6
183,2020-01-13T03:02:00,1.4,西,3,西,1.8,95.2,0,0,0,0,0,0,999,1013.5
184,2020-01-13T03:03:00,1.4,西,3,西,1.8,94.9,0,0,0,0,0,0,999.1,1013.6
185,2020-01-13T03:04:00,1.4,西,3,西,1.8,94.9,0,0,0,0,0,0,999.1,1013.6
186,2020-01-13T03:05:00,1.4,西,3,西,1.7,95.1,0,0,0,0,0,0,999.1,1013.6
187,2020-01-13T03:06:00,1.4,西,3.4,西,1.8,95.2,0,0,0,0,0,0,999.2,1013.7
188,2020-01-13T03:07:00,1.6,西,3.4,西,1.8,95.2,0,0,0,0,0,0,999.2,1013.7
189,2020-01-13T03:08:00,1.6,西,3.4,西,2,95.3,0,0,0,0,0,0,999,1013.5
190,2020-01-13T03:09:00,1.5,西,3.4,西,2,95.5,0,0,0,0,0,0,999,1013.5
191,2020-01-13T03:10:00,1.3,西,3.4,西,2.1,95.4,0,0,0,0,0,0,999.1,1013.6
192,2020-01-13T03:11:00,1.2,西,3.4,西,1.8,95.4,0,0,0,0,0,0,999.2,1013.7
193,2020-01-13T03:12:00,1.3,西,3.4,西,1.8,94.9,0,0,0,0,0,0,999.1,1013.6
194,2020-01-13T03:13:00,1.3,西,3.4,西,1.9,95,0,0,0,0,0,0,999.1,1013.6
195,2020-01-13T03:14:00,1.4,西,3.4,西,2,95.2,0,0,0,0,0,0,999.1,1013.6
196,2020-01-13T03:15:00,1.5,西,3.4,西,2,95.2,0,0,0,0,0,0,999.2,1013.7
197,2020-01-13T03:16:00,1.4,西,3.4,西,1.9,95.1,0,0,0,0,0,0,999.1,1013.6
198,2020-01-13T03:17:00,1.1,西北西,2.8,西南西,1.8,95,0,0,0,0,0,0,999.1,1013.6
199,2020-01-13T03:18:00,1,西,2.8,西南西,1.9,94.7,0,0,0,0,0,0,999.1,1013.6
200,2020-01-13T03:19:00,1,西,2.8,西南西,2,95,0,0,0,0,0,0,999.1,1013.6
201,2020-01-13T03:20:00,1,西,2.8,西南西,1.7,94.5,0,0,0,0,0,0,999.1,1013.6
202,2020-01-13T03:21:00,1,西,2.5,西,1.7,94.2,0,0,0,0,0,0,999.2,1013.7
203,2020-01-13T03:22:00,1,西,2.5,西,1.7,94.2,0,0,0,0,0,0,999.3,1013.8
204,2020-01-13T03:23:00,0.9,西,1.9,西北西,2,94.7,0,0,0,0,0,0,999.2,1013.7
205,2020-01-13T03:24:00,0.8,西北西,1.7,南西,2,95.1,0,0,0,0,0,0,999.2,1013.7
206,2020-01-13T03:25:00,0.7,西北西,1.7,南西,2,95.1,0,0,0,0,0,0,999.2,1013.7
207,2020-01-13T03:26:00,0.7,西北西,1.7,南西,2.1,95.2,0,0,0,0,0,0,999.2,1013.7
208,2020-01-13T03:27:00,0.7,西北西,1.7,南西,2,95.2,0,0,0,0,0,0,999.2,1013.7
209,2020-01-13T03:28:00,0.7,西北西,1.7,南西,2,94.9,0,0,0,0,0,0,999.2,1013.7
210,2020-01-13T03:29:00,0.8,西北西,2,西,2.1,95.2,0,0,0,0,0,0,999.2,1013.7
211,2020-01-13T03:30:00,0.8,西北西,2,西,2.1,95.1,0,0,0,0,0,0,999.2,1013.7
212,2020-01-13T03:31:00,0.8,西北西,2,西,2,95.2,0,0,0,0,0,0,999.2,1013.7
213,2020-01-13T03:32:00,0.8,西北西,2,西,2.1,95,0,0,0,0,0,0,999.1,1013.6
214,2020-01-13T03:33:00,0.7,西北西,2,西,2.1,95.3,0,0,0,0,0,0,999.1,1013.6
215,2020-01-13T03:34:00,0.7,西北西,2,西,2.1,95.3,0,0,0,0,0,0,999.1,1013.6
216,2020-01-13T03:35:00,0.7,西北西,2,西,1.9,95.1,0,0,0,0,0,0,999.1,1013.6
217,2020-01-13T03:36:00,0.8,西北西,2,西,2.1,95,0,0,0,0,0,0,999.1,1013.6
218,2020-01-13T03:37:00,0.9,西北西,2,西,2.1,95.4,0,0,0,0,0,0,999.1,1013.6
219,2020-01-13T03:38:00,0.9,西北西,2,西,2.2,95.5,0,0,0,0,0,0,999.1,1013.6
220,2020-01-13T03:39:00,0.8,北西,1.9,北西,2,95.4,0,0,0,0,0,0,999,1013.5
221,2020-01-13T03:40:00,0.8,北西,1.9,北西,2,95.3,0,0,0,0,0,0,999,1013.5
222,2020-01-13T03:41:00,0.7,北西,1.9,北西,1.9,95.2,0,0,0,0,0,0,999,1013.5
223,2020-01-13T03:42:00,0.7,北西,1.9,北西,2,95.1,0,0,0,0,0,0,999,1013.5
224,2020-01-13T03:43:00,0.7,北西,1.9,北西,2.1,95.4,0,0,0,0,0,0,999,1013.5
225,2020-01-13T03:44:00,0.6,北北西,1.9,北西,2.2,95.6,0,0,0,0,0,0,999.1,1013.6
226,2020-01-13T03:45:00,0.6,北北西,1.9,北西,2,95.6,0,0,0,0,0,0,999.1,1013.6
227,2020-01-13T03:46:00,0.6,北北西,1.9,北西,2.1,95.4,0,0,0,0,0,0,999.1,1013.6
228,2020-01-13T03:47:00,0.5,北北西,1.6,北,2.2,95.6,0,0,0,0,0,0,999.1,1013.6
229,2020-01-13T03:48:00,0.4,北北西,1.6,北,2.3,95.6,0,0,0,0,0,0,999.1,1013.5
230,2020-01-13T03:49:00,0.5,北北西,1.6,北,2.1,95.6,0,0,0,0,0,0,999,1013.5
231,2020-01-13T03:50:00,0.6,北西,1.6,北,2,95.5,0,0,0,0,0,0,999,1013.5
232,2020-01-13T03:51:00,0.6,北西,1.6,北,2.1,95.4,0,0,0,0,0,0,999,1013.5
233,2020-01-13T03:52:00,0.6,西北西,1.6,北,2.4,95.8,0,0,0,0,0,0,999,1013.4
234,2020-01-13T03:53:00,0.6,西北西,1.6,北,2.2,95.9,0,0,0,0,0,0,999.1,1013.6
235,2020-01-13T03:54:00,0.5,西,1.6,北,1.9,95.5,0,0,0,0,0,0,999,1013.5
236,2020-01-13T03:55:00,0.6,西,1.6,北,1.8,95,0,0,0,0,0,0,999,1013.5
237,2020-01-13T03:56:00,0.6,西,1.6,南南西,1.9,95.3,0,0,0,0,0,0,999.1,1013.6
238,2020-01-13T03:57:00,0.5,西南西,1.6,南南西,1.7,95.4,0,0,0,0,0,0,999.1,1013.6
239,2020-01-13T03:58:00,0.5,西南西,1.6,南南西,1.7,95,0,0,0,0,0,0,999.1,1013.6
240,2020-01-13T03:59:00,0.4,西,1.6,南南西,1.8,95.3,0,0,0,0,0,0,999,1013.5
241,2020-01-13T04:00:00,0.5,西,2,西,1.8,95.5,0,0,0,0,0,0,999,1013.5
242,2020-01-13T04:01:00,0.6,西北西,2,西,1.8,95.5,0,0,0,0,0,0,999,1013.5
243,2020-01-13T04:02:00,0.7,西北西,2.2,西,1.8,95.6,0,0,0,0,0,0,999.1,1013.6
244,2020-01-13T04:03:00,0.8,西北西,2.3,西,1.6,95.5,0,0,0,0,0,0,999,1013.5
245,2020-01-13T04:04:00,0.9,西北西,2.3,西,1.7,95.4,0,0,0,0,0,0,999,1013.5
246,2020-01-13T04:05:00,0.9,西北西,2.3,西,1.6,95.5,0,0,0,0,0,0,999,1013.5
247,2020-01-13T04:06:00,1,西北西,2.3,西,1.7,95.5,0,0,0,0,0,0,999.1,1013.6
248,2020-01-13T04:07:00,1.1,西北西,2.3,西,1.6,95.5,0,0,0,0,0,0,999.1,1013.6
249,2020-01-13T04:08:00,1.1,北西,2.3,西,1.5,95.5,0,0,0,0,0,0,999.1,1013.6
250,2020-01-13T04:09:00,1.1,西北西,2.3,西,1.6,95.4,0,0,0,0,0,0,999.2,1013.7
251,2020-01-13T04:10:00,1.1,西北西,2.3,西,1.5,95.6,0,0,0,0,0,0,999.3,1013.8
252,2020-01-13T04:11:00,1,西北西,2.3,西,1.5,95.4,0,0,0,0,0,0,999.3,1013.8
253,2020-01-13T04:12:00,0.9,北西,2.3,西,1.4,95.4,0,0,0,0,0,0,999.2,1013.7
254,2020-01-13T04:13:00,0.9,北西,1.8,北西,1.3,95.3,0,0,0,0,0,0,999.1,1013.6
255,2020-01-13T04:14:00,0.9,北西,1.8,北西,1.3,95.3,0,0,0,0,0,0,999.2,1013.7
256,2020-01-13T04:15:00,0.8,北西,1.8,北西,1.4,95.4,0,0,0,0,0,0,999.2,1013.7
257,2020-01-13T04:16:00,0.7,北北西,1.7,北西,1.4,95.6,0,0,0,0,0,0,999.2,1013.7
258,2020-01-13T04:17:00,0.7,北西,1.4,西北西,1.4,95.5,0,0,0,0,0,0,999.2,1013.7
259,2020-01-13T04:18:00,0.7,北西,1.4,西北西,1.4,95.5,0,0,0,0,0,0,999.2,1013.7
260,2020-01-13T04:19:00,0.7,北西,1.4,西北西,1.2,95.5,0,0,0,0,0,0,999.2,1013.7
261,2020-01-13T04:20:00,0.6,北西,1.4,西北西,1.2,95.3,0,0,0,0,0,0,999.3,1013.8
262,2020-01-13T04:21:00,0.6,北西,1.2,西,1.3,95.4,0,0,0,0,0,0,999.3,1013.8
263,2020-01-13T04:22:00,0.6,西北西,1.2,西,1.3,95.5,0,0,0,0,0,0,999.3,1013.8
264,2020-01-13T04:23:00,0.6,西北西,1.2,西,1.3,95.6,0,0,0,0,0,0,999.2,1013.7
265,2020-01-13T04:24:00,0.5,西北西,1.2,西,1.3,95.5,0,0,0,0,0,0,999.2,1013.7
266,2020-01-13T04:25:00,0.5,西北西,1.2,西,1.3,95.5,0,0,0,0,0,0,999.3,1013.8
267,2020-01-13T04:26:00,0.5,西,1.2,西,1.2,95.5,0,0,0,0,0,0,999.3,1013.8
268,2020-01-13T04:27:00,0.5,西北西,1.2,西南西,1.2,95.5,0,0,0,0,0,0,999.3,1013.8
269,2020-01-13T04:28:00,0.5,西北西,1.2,西南西,1.3,95.5,0,0,0,0,0,0,999.3,1013.8
270,2020-01-13T04:29:00,0.6,西北西,1.9,西北西,1.4,95.6,0,0,0,0,0,0,999.4,1013.9
271,2020-01-13T04:30:00,0.8,西北西,2.7,西北西,1.6,95.7,0,0,0,0,0,0,999.3,1013.8
272,2020-01-13T04:31:00,0.9,西北西,2.7,西北西,1.4,95.7,0,0,0,0,0,0,999.4,1013.9
273,2020-01-13T04:32:00,0.9,西北西,2.7,西北西,1.2,95.4,0,0,0,0,0,0,999.3,1013.8
274,2020-01-13T04:33:00,1,北西,2.7,西北西,1.1,95.1,0,0,0,0,0,0,999.3,1013.8
275,2020-01-13T04:34:00,1,北西,2.7,西北西,1.2,95,0,0,0,0,0,0,999.3,1013.8
276,2020-01-13T04:35:00,1,北西,2.7,西北西,1.3,95.3,0,0,0,0,0,0,999.3,1013.8
277,2020-01-13T04:36:00,1.1,北北西,2.7,西北西,1.3,95.4,0,0,0,0,0,0,999.3,1013.8
278,2020-01-13T04:37:00,1.1,北北西,2.7,西北西,1.2,95.2,0,0,0,0,0,0,999.2,1013.7
279,2020-01-13T04:38:00,1.1,北北西,2.7,西北西,1.3,95.1,0,0,0,0,0,0,999.3,1013.8
280,2020-01-13T04:39:00,1,北,2.7,西北西,1.2,95.2,0,0,0,0,0,0,999.2,1013.7
281,2020-01-13T04:40:00,0.8,北,2.7,西北西,1.2,95,0,0,0,0,0,0,999.3,1013.8
282,2020-01-13T04:41:00,0.6,北,2,東,1.2,94.9,0,0,0,0,0,0,999.3,1013.8
283,2020-01-13T04:42:00,0.6,北,2,東,1,94.9,0,0,0,0,0,0,999.4,1013.9
284,2020-01-13T04:43:00,0.6,北北西,1.6,西北西,1,94.4,0,0,0,0,0,0,999.4,1013.9
285,2020-01-13T04:44:00,0.5,北西,1.6,西北西,1.1,94.7,0,0,0,0,0,0,999.4,1013.9
286,2020-01-13T04:45:00,0.5,北,1.4,西北西,1.1,94.8,0,0,0,0,0,0,999.4,1013.9
287,2020-01-13T04:46:00,0.5,北,2.7,西,1.3,95.1,0,0,0,0,0,0,999.5,1014
288,2020-01-13T04:47:00,0.7,北西,3.4,西北西,1.2,95.3,0,0,0,0,0,0,999.6,1014.1
289,2020-01-13T04:48:00,0.8,西北西,3.4,西北西,1.1,95,0,0,0,0,0,0,999.6,1014.1
290,2020-01-13T04:49:00,0.9,西,3.4,西北西,1.2,94.9,0,0,0,0,0,0,999.6,1014.1
291,2020-01-13T04:50:00,0.9,西南西,3.4,西北西,1.1,94.9,0,0,0,0,0,0,999.6,1014.1
292,2020-01-13T04:51:00,1,南西,3.4,西北西,1.4,95.3,0,0,0,0,0,0,999.7,1014.2
293,2020-01-13T04:52:00,1.2,西南西,3.4,西北西,1.2,95.5,0,0,0,0,0,0,999.7,1014.2
294,2020-01-13T04:53:00,1.3,西南西,3.4,西北西,1,94.7,0,0,0,0,0,0,999.7,1014.2
295,2020-01-13T04:54:00,1.3,西南西,3.4,西北西,1.1,94.7,0,0,0,0,0,0,999.6,1014.1
296,2020-01-13T04:55:00,1.3,西南西,3.4,西北西,1.1,94.9,0,0,0,0,0,0,999.6,1014.1
297,2020-01-13T04:56:00,1.2,南西,3.4,西北西,1.1,94.9,0,0,0,0,0,0,999.7,1014.2
298,2020-01-13T04:57:00,0.9,南西,3.1,西,1.2,95,0,0,0,0,0,0,999.7,1014.2
299,2020-01-13T04:58:00,0.9,南南西,3.1,西,1.3,95.4,0,0,0,0,0,0,999.8,1014.3
300,2020-01-13T04:59:00,1,南西,3.1,西,1.2,95.3,0,0,0,0,0,0,999.8,1014.3
301,2020-01-13T05:00:00,1.1,西南西,3.1,西,1,94.7,0,0,0,0,0,0,999.8,1014.3
302,2020-01-13T05:01:00,1.2,西南西,3.1,西,1,94.4,0,0,0,0,0,0,999.8,1014.3
303,2020-01-13T05:02:00,1.1,西南西,2.9,西,1,94.5,0,0,0,0,0,0,999.7,1014.2
304,2020-01-13T05:03:00,1,西南西,2.9,西,1.2,95,0,0,0,0,0,0,999.7,1014.2
305,2020-01-13T05:04:00,1,西,2.9,西,1.3,95.2,0,0,0,0,0,0,999.7,1014.2
306,2020-01-13T05:05:00,1.1,西,2.9,西,1.3,95.2,0,0,0,0,0,0,999.7,1014.2
307,2020-01-13T05:06:00,1.1,西,2.9,西,1.3,95.2,0,0,0,0,0,0,999.6,1014.1
308,2020-01-13T05:07:00,1.1,西,2.9,西,1.2,94.8,0,0,0,0,0,0,999.6,1014.1
309,2020-01-13T05:08:00,1.1,西,2.9,西,1,94.3,0,0,0,0,0,0,999.6,1014.1
310,2020-01-13T05:09:00,0.9,西南西,2.9,西,1.1,93.8,0,0,0,0,0,0,999.6,1014.1
311,2020-01-13T05:10:00,0.7,西南西,2.5,西,1.2,94.2,0,0,0,0,0,0,999.6,1014.1
312,2020-01-13T05:11:00,0.6,西南西,2.1,西,1.5,94.7,0,0,0,0,0,0,999.7,1014.2
313,2020-01-13T05:12:00,0.5,西南西,2,西,1.4,94.9,0,0,0,0,0,0,999.8,1014.3
314,2020-01-13T05:13:00,0.8,西南西,4.7,西,1,93.7,0,0,0,0,0,0,999.8,1014.3
315,2020-01-13T05:14:00,0.9,西南西,4.7,西,1,93,0,0,0,0,0,0,999.8,1014.3
316,2020-01-13T05:15:00,1,西南西,4.7,西,1,93.1,0,0,0,0,0,0,999.7,1014.2
317,2020-01-13T05:16:00,1.1,西南西,4.7,西,1,93.2,0,0,0,0,0,0,999.7,1014.2
318,2020-01-13T05:17:00,1.3,西南西,4.7,西,1,93.3,0,0,0,0,0,0,999.7,1014.2
319,2020-01-13T05:18:00,1.4,西南西,4.7,西,1,93.1,0,0,0,0,0,0,999.7,1014.2
320,2020-01-13T05:19:00,1.4,西南西,4.7,西,1.1,93.3,0,0,0,0,0,0,999.7,1014.2
321,2020-01-13T05:20:00,1.5,西南西,4.7,西,1.1,93.5,0,0,0,0,0,0,999.8,1014.3
322,2020-01-13T05:21:00,1.6,西,4.7,西,0.9,93.3,0,0,0,0,0,0,999.8,1014.3
323,2020-01-13T05:22:00,1.6,西,4.7,西,1.2,93.1,0,0,0,0,0,0,999.8,1014.3
324,2020-01-13T05:23:00,1.4,西,3.3,西,1.3,94,0,0,0,0,0,0,999.8,1014.3
325,2020-01-13T05:24:00,1.3,西,3.3,西,1,93.4,0,0,0,0,0,0,999.8,1014.3
326,2020-01-13T05:25:00,1.1,西北西,3.3,西,0.8,92.6,0,0,0,0,0,0,999.7,1014.2
327,2020-01-13T05:26:00,1,西北西,2.9,西,0.7,91.9,0,0,0,0,0,0,999.7,1014.2
328,2020-01-13T05:27:00,0.9,西北西,2.7,西北西,1,92.1,0,0,0,0,0,0,999.7,1014.2
329,2020-01-13T05:28:00,0.9,西北西,2.7,西北西,1.2,93.3,0,0,0,0,0,0,999.8,1014.3
330,2020-01-13T05:29:00,0.8,西,2.7,西北西,1,93,0,0,0,0,0,0,999.8,1014.3
331,2020-01-13T05:30:00,0.7,西,2.6,西,0.7,92.2,0,0,0,0,0,0,999.8,1014.3
332,2020-01-13T05:31:00,0.6,西,1.4,南西,0.7,91.9,0,0,0,0,0,0,999.8,1014.3
333,2020-01-13T05:32:00,0.5,西,1.4,南西,0.7,92.3,0,0,0,0,0,0,999.8,1014.3
334,2020-01-13T05:33:00,0.4,南西,1.4,南西,0.7,92.4,0,0,0,0,0,0,999.8,1014.3
335,2020-01-13T05:34:00,0.4,南南西,1.4,南西,0.8,92.9,0,0,0,0,0,0,999.8,1014.3
336,2020-01-13T05:35:00,0.5,南,1.4,南西,0.6,92.8,0,0,0,0,0,0,999.8,1014.3
337,2020-01-13T05:36:00,0.5,南,1.4,南西,0.6,92.5,0,0,0,0,0,0,999.8,1014.3
338,2020-01-13T05:37:00,0.5,南,1.4,南西,0.7,92.9,0,0,0,0,0,0,999.8,1014.3
339,2020-01-13T05:38:00,0.4,南南東,1.4,東北東,0.7,93.4,0,0,0,0,0,0,999.8,1014.3